• In Deutschland
  • Länderverzeichnis
  • Für 7 Tage
  • Wassertemperatur
  • Satellitenkarten
  • Wetterkarte
  • Widgets
  • user-avatar
    Anmelden

    Stündliche Wetter Bagdarin

    Heute, 22 September, Samstag

    Zeit Temperatur Niederschläge Wind Luftdruck Luftfeuchtigkeit
    00:00 +2°C° 0 mm 3 m/S 684 mmHg 93%
    01:00 +2°C° 0 mm 3 m/S 684 mmHg 92%
    02:00 +3°C° 0 mm 2 m/S 684 mmHg 92%
    03:00 +2°C° 0 mm 2 m/S 684 mmHg 91%
    04:00 +2°C° 0 mm 2 m/S 684 mmHg 91%
    05:00 +2°C° 0 mm 2 m/S 684 mmHg 90%
    06:00 +3°C° 0 mm 2 m/S 685 mmHg 89%
    07:00 +3°C° 0 mm 2 m/S 685 mmHg 87%
    08:00 +4°C° 0 mm 3 m/S 686 mmHg 80%
    09:00 +5°C° 0 mm 3 m/S 686 mmHg 73%
    10:00 +8°C° 0 mm 3 m/S 686 mmHg 67%
    11:00 +8°C° 0 mm 4 m/S 686 mmHg 60%
    12:00 +9°C° 0 mm 3 m/S 686 mmHg 58%
    13:00 +10°C° 0 mm 3 m/S 686 mmHg 56%
    14:00 +11°C° 0 mm 3 m/S 686 mmHg 54%
    15:00 +10°C° 0 mm 3 m/S 686 mmHg 57%
    16:00 +10°C° 0 mm 2 m/S 686 mmHg 59%
    17:00 +10°C° 0 mm 2 m/S 686 mmHg 62%
    18:00 +8°C° 0 mm 2 m/S 686 mmHg 67%
    19:00 +8°C° 0 mm 1 m/S 686 mmHg 72%
    20:00 +6°C° 0 mm 2 m/S 686 mmHg 78%
    21:00 +5°C° 0 mm 2 m/S 686 mmHg 79%
    22:00 +5°C° 0 mm 1 m/S 686 mmHg 81%
    23:00 +5°C° 0 mm 1 m/S 686 mmHg 82%

    Morgen, 23 September, Sonntag

    Zeit Temperatur Niederschläge Wind Luftdruck Luftfeuchtigkeit
    00:00 +5°C° 0 mm 1 m/S 686 mmHg 82%
    01:00 +4°C° 0 mm 1 m/S 686 mmHg 82%
    02:00 +4°C° 0 mm 1 m/S 686 mmHg 82%
    03:00 +4°C° 0 mm 1 m/S 686 mmHg 83%
    04:00 +4°C° 0 mm 1 m/S 686 mmHg 84%
    05:00 +3°C° 0 mm 1 m/S 686 mmHg 84%
    06:00 +4°C° 0 mm 1 m/S 686 mmHg 80%
    07:00 +5°C° 0 mm 1 m/S 687 mmHg 76%
    08:00 +6°C° 0 mm 1 m/S 687 mmHg 72%
    09:00 +7°C° 0 mm 0 m/S 687 mmHg 65%
    10:00 +9°C° 0 mm 0 m/S 687 mmHg 58%
    11:00 +11°C° 0 mm 0 m/S 687 mmHg 51%
    12:00 +12°C° 0 mm 0 m/S 687 mmHg 48%
    13:00 +12°C° 0 mm 0 m/S 686 mmHg 46%
    14:00 +13°C° 0 mm 0 m/S 686 mmHg 43%
    15:00 +12°C° 0 mm 0 m/S 686 mmHg 46%
    16:00 +12°C° 0 mm 0 m/S 685 mmHg 50%
    17:00 +11°C° 0 mm 0 m/S 685 mmHg 53%
    18:00 +9°C° 0 mm 0 m/S 685 mmHg 59%
    19:00 +7°C° 0 mm 0 m/S 685 mmHg 64%
    20:00 +5°C° 0 mm 0 m/S 685 mmHg 70%
    21:00 +4°C° 0 mm 0 m/S 685 mmHg 72%
    22:00 +4°C° 0 mm 0 m/S 685 mmHg 74%
    23:00 +3°C° 0 mm 0 m/S 685 mmHg 75%

    übermorgen, 24 September, Montag

    Zeit Temperatur Niederschläge Wind Luftdruck Luftfeuchtigkeit
    00:00 +3°C° 0 mm 0 m/S 685 mmHg 77%
    01:00 +3°C° 0 mm 0 m/S 685 mmHg 79%
    02:00 +2°C° 0 mm 0 m/S 685 mmHg 80%
    03:00 +2°C° 0 mm 0 m/S 685 mmHg 82%
    04:00 +2°C° 0 mm 0 m/S 684 mmHg 84%
    05:00 +2°C° 0 mm 0 m/S 684 mmHg 85%
    06:00 +3°C° 0 mm 0 m/S 685 mmHg 81%
    07:00 +4°C° 0 mm 0 m/S 685 mmHg 77%
    08:00 +5°C° 0 mm 0 m/S 685 mmHg 73%
    09:00 +8°C° 0 mm 1 m/S 685 mmHg 67%
    10:00 +10°C° 0 mm 1 m/S 685 mmHg 61%
    11:00 +12°C° 0 mm 2 m/S 685 mmHg 55%
    12:00 +13°C° 0 mm 2 m/S 684 mmHg 53%
    13:00 +13°C° 0 mm 2 m/S 684 mmHg 51%
    14:00 +14°C° 0 mm 2 m/S 684 mmHg 48%
    15:00 +13°C° 0 mm 2 m/S 683 mmHg 52%
    16:00 +13°C° 0 mm 2 m/S 683 mmHg 57%
    17:00 +12°C° 0 mm 2 m/S 683 mmHg 61%
    18:00 +10°C° 0 mm 1 m/S 683 mmHg 67%
    19:00 +8°C° 0 mm 1 m/S 683 mmHg 74%
    20:00 +6°C° 0 mm 1 m/S 683 mmHg 80%
    21:00 +6°C° 0 mm 1 m/S 683 mmHg 81%
    22:00 +5°C° 0 mm 1 m/S 683 mmHg 82%
    23:00 +4°C° 0 mm 0 m/S 683 mmHg 84%

    25 September, Dienstag

    Zeit Temperatur Niederschläge Wind Luftdruck Luftfeuchtigkeit
    00:00 +4°C° 0 mm 0 m/S 683 mmHg 84%
    01:00 +4°C° 0 mm 0 m/S 683 mmHg 85%
    02:00 +3°C° 0 mm 0 m/S 683 mmHg 85%
    03:00 +3°C° 0 mm 0 m/S 682 mmHg 86%
    04:00 +3°C° 0 mm 0 m/S 682 mmHg 87%
    05:00 +3°C° 0 mm 0 m/S 682 mmHg 87%
    06:00 +4°C° 0 mm 0 m/S 682 mmHg 83%
    07:00 +5°C° 0 mm 0 m/S 683 mmHg 79%
    08:00 +6°C° 0 mm 0 m/S 683 mmHg 75%
    09:00 +8°C° 0 mm 0 m/S 683 mmHg 69%
    10:00 +11°C° 0 mm 1 m/S 683 mmHg 62%
    11:00 +13°C° 0 mm 1 m/S 683 mmHg 55%
    12:00 +14°C° 0 mm 1 m/S 683 mmHg 53%
    13:00 +14°C° 0 mm 1 m/S 682 mmHg 50%
    14:00 +15°C° 0 mm 2 m/S 682 mmHg 47%
    15:00 +14°C° 0 mm 1 m/S 682 mmHg 51%
    16:00 +13°C° 0 mm 1 m/S 682 mmHg 55%
    17:00 +13°C° 0 mm 1 m/S 682 mmHg 59%
    18:00 +11°C° 0 mm 1 m/S 682 mmHg 64%
    19:00 +9°C° 0 mm 1 m/S 682 mmHg 69%
    20:00 +7°C° 0 mm 1 m/S 682 mmHg 75%
    21:00 +7°C° 0 mm 1 m/S 682 mmHg 76%
    22:00 +5°C° 0 mm 0 m/S 682 mmHg 78%
    23:00 +5°C° 0 mm 0 m/S 682 mmHg 80%

    26 September, Mittwoch

    Zeit Temperatur Niederschläge Wind Luftdruck Luftfeuchtigkeit
    00:00 +4°C° 0 mm 0 m/S 681 mmHg 82%
    01:00 +4°C° 0 mm 0 m/S 681 mmHg 83%
    02:00 +3°C° 0 mm 0 m/S 681 mmHg 84%
    03:00 +3°C° 0 mm 0 m/S 681 mmHg 85%
    04:00 +3°C° 0 mm 0 m/S 681 mmHg 86%
    05:00 +3°C° 0 mm 0 m/S 681 mmHg 87%
    06:00 +4°C° 0 mm 0 m/S 681 mmHg 83%
    07:00 +5°C° 0 mm 0 m/S 682 mmHg 79%
    08:00 +7°C° 0 mm 1 m/S 682 mmHg 75%
    09:00 +9°C° 0 mm 1 m/S 682 mmHg 70%
    10:00 +10°C° 0 mm 2 m/S 681 mmHg 65%
    11:00 +13°C° 0 mm 2 m/S 681 mmHg 59%
    12:00 +12°C° 0 mm 3 m/S 681 mmHg 57%
    13:00 +13°C° 0 mm 3 m/S 681 mmHg 54%
    14:00 +14°C° 0 mm 3 m/S 680 mmHg 51%
    15:00 +13°C° 0 mm 3 m/S 680 mmHg 55%
    16:00 +13°C° 0 mm 2 m/S 680 mmHg 59%
    17:00 +13°C° 0 mm 2 m/S 679 mmHg 63%
    18:00 +10°C° 0 mm 2 m/S 679 mmHg 68%
    19:00 +8°C° 0 mm 2 m/S 679 mmHg 73%
    20:00 +6°C° 0 mm 2 m/S 679 mmHg 79%
    21:00 +6°C° 0 mm 2 m/S 679 mmHg 81%
    22:00 +5°C° 0 mm 2 m/S 679 mmHg 83%
    23:00 +4°C° 0 mm 2 m/S 679 mmHg 85%

    27 September, Donnerstag

    Zeit Temperatur Niederschläge Wind Luftdruck Luftfeuchtigkeit
    00:00 +4°C° 0 mm 2 m/S 678 mmHg 85%
    01:00 +5°C° 0 mm 1 m/S 678 mmHg 86%
    02:00 +4°C° 0 mm 1 m/S 678 mmHg 87%
    03:00 +4°C° 0 mm 1 m/S 678 mmHg 87%
    04:00 +4°C° 0 mm 1 m/S 678 mmHg 87%
    05:00 +4°C° 0 mm 1 m/S 678 mmHg 87%
    06:00 +5°C° 0.1 mm 1 m/S 678 mmHg 84%
    07:00 +6°C° 0.1 mm 1 m/S 678 mmHg 82%
    08:00 +6°C° 0.1 mm 1 m/S 678 mmHg 80%
    09:00 +7°C° 0 mm 2 m/S 678 mmHg 73%
    10:00 +8°C° 0 mm 2 m/S 678 mmHg 67%
    11:00 +10°C° 0 mm 2 m/S 678 mmHg 60%
    12:00 +10°C° 0.1 mm 2 m/S 678 mmHg 56%
    13:00 +12°C° 0.1 mm 2 m/S 678 mmHg 52%
    14:00 +12°C° 0.1 mm 2 m/S 678 mmHg 48%
    15:00 +12°C° 0.1 mm 2 m/S 678 mmHg 51%
    16:00 +10°C° 0.1 mm 2 m/S 678 mmHg 54%
    17:00 +10°C° 0.1 mm 2 m/S 678 mmHg 57%
    18:00 +8°C° 0.1 mm 2 m/S 678 mmHg 61%
    19:00 +7°C° 0.1 mm 2 m/S 679 mmHg 66%
    20:00 +5°C° 0.1 mm 2 m/S 679 mmHg 71%
    21:00 +4°C° 0.1 mm 2 m/S 679 mmHg 72%
    22:00 +4°C° 0.1 mm 2 m/S 680 mmHg 74%
    23:00 +3°C° 0.1 mm 2 m/S 680 mmHg 76%
    Mehr zeigen